Home   Weather   Nettetal   Past weeks

Flag for Germany Past Weather in Nettetal, North Rhine-Westphalia, Germany — Yesterday and Last 2 Weeks

Now
64 °F

Clear.


Feels Like: 64 °F
Forecast: 53 / 64 °F
Wind: 9 mph from Southwest

Location: Niederrhein

Current Time: Sep 29, 2016 at 2:08:17 AM

Latest Report: Sep 28, 2016 at 11:50 PM


Visibility: 10 mi

Pressure: 30.18 "Hg

Humidity: 73%

Dew Point: 55 °F

Location of NettetalLocation

Past Weather in Nettetal — Graph

°F

Nettetal Temperature Yesterday

Maximum temperature yesterday: 73 °F (at 3:50 PM)
Minimum temperature yesterday: 59 °F (at 5:50 AM)
Average temperature yesterday: 66 °F

High & Low Weather Summary for the Past Weeks

 TemperatureHumidityPressure
High91 °F (Sep 14, 2:20 PM)100% (Sep 15, 11:50 PM)30.30 "Hg (Sep 15, 11:50 PM)
Low43 °F (Sep 27, 7:50 AM)26% (Sep 14, 3:50 PM)29.77 "Hg (Sep 15, 3:50 PM)
Average64 °F70%30.09 "Hg
* Reported Sep 13 11:20 PM — Sep 28 11:50 PM, Nettetal, Weather by CustomWeather, © 2016

Note: Actual official high and low records may vary slightly from our data, if they occured in-between our weather recording intervals... More about our weather records

Advertising

Nettetal Weather History for the Previous 24 Hours

Scroll right to see more
 ConditionsComfort  
Time TempWeatherWind HumidityBarometerVisibility
11:50 PM
Wed, Sep 28
64 °FClear.9 mph73%30.18 "Hg10 mi
11:20 PM64 °FClear.10 mph68%30.18 "Hg10 mi
10:50 PM66 °FPassing clouds.8 mph64%30.18 "HgN/A
10:20 PM66 °FPassing clouds.9 mph60%30.18 "HgN/A
9:50 PM66 °FClear.9 mph60%30.18 "Hg10 mi
9:20 PM66 °FClear.9 mph60%30.21 "Hg10 mi
8:50 PM68 °FPassing clouds.10 mph56%30.18 "HgN/A
8:20 PM68 °FClear.10 mph60%30.21 "Hg10 mi
7:50 PM70 °FSunny.10 mph53%30.21 "Hg10 mi
7:20 PM70 °FSunny.9 mph53%30.21 "Hg10 mi
6:50 PM70 °FSunny.12 mph53%30.21 "Hg10 mi
6:20 PM70 °FPassing clouds.12 mph53%30.21 "HgN/A
5:50 PM72 °FSunny.12 mph50%30.21 "Hg10 mi
5:20 PM72 °FSunny.15 mph50%30.21 "Hg10 mi
4:50 PM73 °FPassing clouds.13 mph47%30.21 "HgN/A
4:20 PM73 °FSunny.13 mph47%30.21 "Hg10 mi
3:50 PM73 °FSunny.14 mph47%30.21 "Hg10 mi
3:20 PM72 °FPassing clouds.13 mph53%30.21 "HgN/A
2:50 PM72 °FSunny.16 mph53%30.21 "Hg10 mi
2:20 PM72 °FSunny.16 mph53%30.24 "Hg10 mi
1:50 PM72 °FSunny.15 mph57%30.24 "Hg10 mi
1:20 PM70 °FPassing clouds.16 mph60%30.24 "HgN/A
12:50 PM70 °FScattered clouds.16 mph60%30.24 "HgN/A
12:20 PM68 °FScattered clouds.14 mph69%30.24 "HgN/A
11:50 AM66 °FScattered clouds.12 mph78%30.24 "HgN/A
11:20 AM66 °FScattered clouds.15 mph73%30.24 "HgN/A
10:50 AM66 °FScattered clouds.14 mph73%30.24 "HgN/A
10:20 AM63 °FPassing clouds.12 mph83%30.24 "HgN/A
9:50 AM63 °FScattered clouds.10 mph77%30.24 "HgN/A
9:20 AM63 °FPartly sunny.13 mph73%30.24 "HgN/A
8:50 AM61 °FPartly sunny.10 mph77%30.24 "HgN/A
8:20 AM61 °FPassing clouds.9 mph77%30.24 "HgN/A
7:50 AM61 °FPassing clouds.9 mph68%30.24 "HgN/A
7:20 AM59 °FClear.8 mph68%30.24 "Hg10 mi
6:50 AM59 °FPassing clouds.7 mph63%30.24 "HgN/A
6:20 AM59 °FClear.8 mph63%30.21 "Hg10 mi
5:50 AM59 °FClear.9 mph63%30.21 "Hg10 mi
5:20 AM61 °FPassing clouds.9 mph55%30.24 "HgN/A
4:50 AM61 °FClear.9 mph55%30.24 "Hg10 mi
Weather by CustomWeather, © 2016

See weather overviewHow to use our weather pages